Temperature
6 5 5 6 6 7 8 7 7 9 10 10 10 11 11 13 13 13 14 15 15 16 17 17 17 17 16 16 16 15 15 14 14 13 13 13 13 13 12 12 12 12 12 11
4 4 6 7 7 7 7 7 7 8 10 10 9 10 11 12 12 13 14 14 15 16 16 17 17 17 16 16 16 16 15 15 14 14 14 14 14 13 13 12 12 12 12 12
4 5 7 7 6 7 7 7 7 8 8 9 9 9 10 11 12 13 14 15 15 16 16 16 17 17 16 16 16 16 16 15 15 15 14 13 12 12 12 12 12 12 12 12
4 6 6 6 6 7 6 8 8 8 7 7 8 7 8 10 11 12 13 14 15 15 16 17 17 17 17 17 17 17 16 16 16 15 14 13 13 13 13 13 13 12 12 12
4 5 6 6 6 7 6 8 8 7 7 6 7 6 7 9 10 11 12 14 15 15 16 17 17 17 17 17 17 17 17 16 16 15 14 14 14 14 14 13 13 12 12 12
5 6 6 6 7 7 7 7 6 6 6 5 6 6 7 8 10 11 12 13 15 15 16 16 17 17 17 17 17 17 16 16 16 15 15 14 14 14 13 13 13 12 12 12
3 5 6 6 5 6 6 5 4 4 4 5 7 7 7 8 10 11 12 13 14 15 15 16 16 17 17 17 17 16 16 16 16 15 15 15 15 14 14 14 13 13 12 12
2 3 5 5 5 5 5 5 4 4 4 5 6 7 8 9 10 12 12 13 14 14 15 15 16 16 17 17 17 16 16 16 16 15 15 15 15 14 14 14 14 13 13 14
2 2 5 5 6 5 4 4 5 4 4 4 5 6 7 9 9 10 11 12 12 13 14 15 15 16 17 17 17 17 16 16 16 16 16 15 15 14 14 14 14 14 14 14
2 1 3 4 5 5 5 5 4 4 4 4 5 6 7 8 9 9 9 10 11 12 13 14 15 16 16 17 17 17 16 16 16 16 16 15 15 15 14 14 13 13 13 13
2 1 2 3 3 4 4 4 4 3 3 4 4 6 8 8 9 9 9 10 11 12 12 13 14 15 16 16 16 16 16 16 16 16 16 15 15 15 14 14 14 13 13 13
2 1 1 2 3 4 4 3 3 3 2 3 3 6 9 8 9 9 9 10 10 11 12 12 13 14 15 15 16 16 16 15 15 16 15 15 15 14 14 14 13 13 13 13
2 1 0 1 2 2 2 2 2 2 2 3 3 5 8 8 8 8 8 9 9 10 11 11 12 13 14 14 15 15 15 15 15 15 15 15 14 14 14 14 13 13 13 12
3 0 0 1 1 1 1 2 2 2 2 2 3 5 6 7 7 7 8 8 9 9 10 10 11 12 13 14 14 15 15 15 15 15 14 14 14 14 14 14 13 13 12 12
2 0 0 1 2 2 2 3 3 2 2 2 4 5 6 6 6 7 7 7 8 8 9 9 10 11 12 12 13 14 14 14 14 14 14 14 14 14 13 13 13 12 12 12
1 0 0 1 2 2 3 3 3 3 3 3 4 4 6 6 6 6 6 6 7 7 8 8 9 10 11 12 12 13 14 14 14 14 14 14 14 13 13 13 13 12 12 12
-1 -1 -0 0 1 2 1 3 3 3 3 3 4 4 5 5 6 6 6 6 6 6 7 8 8 9 10 11 12 12 13 14 13 13 13 13 13 13 13 13 12 12 12 11
-1 -1 -1 -0 -0 -0 2 3 4 4 4 4 4 4 5 5 6 6 6 6 6 6 7 7 8 9 10 11 11 12 12 13 13 13 13 13 13 13 13 12 12 12 12 11
0 -0 -1 -1 -0 0 2 3 3 3 3 3 3 4 4 5 5 6 6 6 6 6 7 7 8 9 9 10 11 11 11 12 12 12 13 13 13 13 12 12 12 12 11 11
0 -0 -1 -1 -0 0 2 3 4 3 2 3 3 3 3 3 3 4 6 6 6 7 7 7 8 9 9 10 10 11 11 11 12 12 13 13 13 12 12 12 12 11 11 11
-1 -1 -1 -1 -1 0 2 3 3 2 2 3 3 3 3 3 3 4 5 5 6 6 7 7 8 8 9 9 10 10 11 11 12 12 12 12 12 12 12 11 11 11 11 10
-1 -2 -2 -1 -1 0 2 2 2 2 3 3 3 3 3 3 4 4 5 5 5 6 6 7 7 8 9 9 9 10 10 11 11 11 11 12 12 11 11 11 10 10 10 10
-1 -1 -1 -1 0 1 2 2 3 3 3 3 3 3 3 3 3 4 4 4 5 6 6 6 7 8 8 8 9 9 10 10 10 11 11 11 11 11 10 10 10 10 9 9
-1 -1 -1 -1 -0 1 2 2 3 3 3 3 3 3 3 3 3 3 4 4 4 5 5 6 6 7 8 8 8 9 9 10 10 10 10 10 10 10 10 9 9 9 9 9
-1 -1 -1 -1 -0 0 2 2 2 2 2 3 3 3 3 3 3 3 3 4 4 5 5 6 6 7 7 7 8 8 9 9 9 9 9 9 9 9 9 9 9 9 9 9
-2 -1 -1 -1 -0 -0 0 2 2 2 2 2 2 2 2 2 2 3 3 3 4 4 5 5 6 6 7 7 7 8 8 8 9 9 9 8 8 8 8 8 8 8 8 8
Wind_Speed
4 5 11 15 16 14 10 10 12 11 7 9 15 18 15 12 11 13 13 13 14 16 16 16 18 18 18 19 21 23 21 21 18 16 15 15 14 13 12 11 15 19 18 19
3 12 14 12 12 14 16 16 15 11 9 10 12 18 15 15 15 14 15 15 15 14 14 15 16 18 19 22 23 24 24 23 22 18 16 13 11 9 10 9 12 18 18 18
11 8 8 12 13 14 16 16 13 11 8 8 9 13 14 13 14 16 15 15 14 16 16 15 16 18 20 22 24 23 25 24 23 18 12 10 8 6 7 11 12 14 18 18
9 9 11 12 13 13 15 11 12 11 7 6 6 8 10 12 15 17 17 15 16 15 15 15 16 18 20 22 22 23 25 24 23 20 18 19 16 14 13 13 11 12 15 16
7 6 8 13 14 12 9 6 10 11 10 9 8 8 9 8 15 17 17 17 16 15 15 15 16 18 19 22 22 22 23 24 23 22 22 21 16 13 8 9 12 12 12 14
10 7 6 7 8 9 7 4 6 6 5 11 13 11 9 9 15 13 14 15 16 15 15 14 15 15 17 19 20 20 22 23 24 24 23 23 21 16 14 13 14 13 10 11
6 7 7 5 5 5 5 4 3 4 6 9 8 10 11 10 11 15 15 14 14 14 13 12 12 14 15 18 20 20 22 23 23 25 24 24 23 20 19 17 16 14 11 11
4 7 5 4 7 6 8 8 7 6 6 4 5 11 9 9 10 10 11 11 10 10 11 12 13 14 16 18 20 21 22 22 24 25 24 22 21 17 16 16 14 16 14 14
5 6 4 6 5 5 6 8 7 4 4 4 6 7 7 5 7 8 8 8 10 11 11 10 11 12 14 17 20 22 23 21 23 24 23 22 21 19 17 16 15 13 11 11
5 7 7 5 4 6 6 5 3 5 5 6 7 7 6 4 6 6 6 7 9 10 10 10 10 11 12 15 18 19 21 22 21 23 22 19 21 20 17 15 16 15 14 12
4 5 5 3 5 6 4 4 4 4 4 4 5 7 6 7 5 6 8 8 9 8 8 8 8 9 9 11 14 17 18 18 19 21 20 19 19 18 17 16 17 16 13 14
4 4 5 7 6 4 5 5 4 4 5 4 4 8 5 5 4 5 7 7 7 7 6 6 6 5 7 9 12 15 16 17 18 18 18 19 18 18 18 17 16 15 15 14
4 3 3 5 3 2 3 4 5 4 3 5 6 9 5 6 8 8 7 8 7 7 5 4 3 4 5 8 10 13 14 15 15 15 17 17 17 18 18 17 16 15 15 14
4 4 6 8 6 4 6 8 7 6 5 7 10 14 15 14 13 12 10 8 7 6 5 4 3 4 4 6 8 10 12 13 13 14 15 17 17 17 17 16 15 15 15 14
3 5 7 10 10 9 12 13 11 12 11 11 12 15 16 14 13 12 10 8 7 7 6 4 4 3 3 4 6 7 9 11 12 13 14 15 15 14 14 14 15 14 13 14
3 5 5 9 10 11 15 15 14 15 14 14 16 18 13 11 9 9 7 6 6 7 7 6 5 4 3 4 5 6 7 9 11 13 13 12 13 13 14 14 14 14 13 13
4 4 3 6 6 7 11 12 13 11 10 10 13 13 10 10 10 9 6 5 5 7 7 7 6 6 5 5 5 6 7 8 10 11 11 11 12 13 13 13 13 14 14 13
7 6 4 4 2 8 8 5 8 11 12 9 10 10 10 12 12 8 3 4 6 7 7 7 6 6 5 3 3 4 6 8 10 10 10 11 12 12 12 13 14 14 12 13
10 8 5 4 6 9 8 4 5 7 9 6 8 10 10 10 7 5 5 5 6 7 7 6 6 5 4 3 2 5 6 8 9 10 11 11 12 12 12 13 13 11 11 11
8 8 6 5 5 7 6 5 5 4 7 5 6 9 8 5 4 7 8 7 7 7 6 6 4 3 3 2 2 6 7 8 10 10 10 10 11 12 13 13 11 10 10 11
5 5 8 8 8 8 7 5 0 3 6 5 4 6 6 5 6 8 9 7 7 7 7 6 3 3 3 2 3 5 7 9 8 8 8 9 10 11 11 10 10 11 10 11
7 6 6 6 7 9 4 2 3 6 5 5 4 5 6 7 8 8 8 8 8 7 7 6 4 4 3 3 4 6 7 6 6 8 9 9 10 9 10 11 10 11 12 12
7 8 6 8 8 6 3 5 6 5 6 6 6 6 6 8 8 9 9 9 8 8 8 6 5 4 3 3 5 6 5 5 7 9 9 9 9 9 11 12 13 11 11 11
5 5 5 6 9 9 9 7 7 7 9 8 7 7 6 8 9 10 9 9 8 8 7 6 5 4 4 4 4 5 5 7 8 10 10 10 10 10 10 10 10 11 11 11
7 4 5 9 10 9 9 8 8 9 10 10 8 7 8 9 11 10 10 10 9 8 7 6 5 5 5 4 4 5 7 8 9 10 10 10 10 10 10 8 8 9 9 12
6 7 8 10 9 8 9 8 8 9 10 10 11 11 10 9 10 10 10 10 9 8 7 6 6 6 5 4 4 6 8 9 10 10 11 9 9 9 9 9 7 6 8 12
Wind_Direction
205 207 223 221 220 238 249 251 256 258 264 257 252 257 259 255 251 244 238 231 226 224 219 209 203 197 192 188 186 185 184 182 178 180 180 181 186 186 187 187 185 183 183 181
250 239 241 242 239 244 249 255 259 269 258 260 264 266 261 249 245 243 238 235 230 229 226 215 207 199 194 192 189 188 187 184 184 186 186 185 179 181 183 182 185 185 184 183
230 246 245 243 241 244 248 245 252 261 280 265 274 272 254 251 246 245 240 234 231 225 223 217 209 202 197 195 193 191 190 187 188 184 175 163 157 156 175 187 190 190 187 186
249 252 256 257 248 238 252 244 251 259 259 251 218 266 251 236 243 243 240 235 232 230 225 218 211 204 200 198 195 193 191 189 188 182 179 178 182 187 193 189 188 187 188 187
251 252 251 249 246 238 246 248 248 247 246 256 231 250 267 221 234 237 235 234 234 230 226 220 212 207 202 197 195 194 192 191 188 186 185 186 191 193 178 173 179 186 190 190
255 256 246 244 248 237 247 257 268 250 228 246 229 223 262 220 225 232 234 233 232 229 225 223 216 206 202 197 193 192 191 192 190 189 189 190 192 185 175 180 186 190 191 193
285 261 241 228 261 247 226 198 233 231 219 239 207 214 246 232 227 227 231 234 234 232 229 228 221 209 202 197 194 192 192 193 192 191 192 194 194 190 189 188 190 189 191 196
267 277 237 217 221 228 218 196 202 217 220 249 204 226 244 232 233 231 234 239 240 236 231 228 224 213 204 199 194 192 194 194 192 193 195 196 194 194 196 193 192 195 199 200
237 261 277 268 247 206 205 215 213 233 262 256 240 258 280 251 251 248 249 252 253 245 238 232 230 219 206 200 196 194 194 196 194 194 194 195 194 195 196 193 192 196 197 193
208 263 270 272 261 228 212 192 183 205 218 237 246 244 243 238 251 263 261 261 263 260 248 239 231 224 212 202 198 195 194 196 195 194 195 196 196 196 195 191 195 197 194 188
206 237 278 282 226 223 213 204 215 221 224 220 248 255 217 210 229 251 259 269 267 263 257 250 242 227 214 200 195 194 195 195 195 195 194 193 193 194 191 193 195 196 192 189
212 219 253 251 253 245 211 204 199 221 241 229 246 266 269 245 268 278 282 287 288 282 271 265 257 232 211 199 196 193 194 194 195 194 191 192 191 189 190 194 194 191 191 191
211 206 277 311 305 267 227 217 220 240 241 228 231 262 283 316 309 300 297 302 304 300 298 301 289 241 213 203 197 194 191 192 191 189 190 189 188 188 191 193 190 188 188 187
249 207 214 230 246 244 249 251 238 224 240 248 240 263 288 306 309 306 304 300 301 302 300 295 290 269 226 201 195 194 193 188 185 185 188 189 189 189 190 189 187 186 185 184
210 237 240 253 260 260 260 257 246 234 233 242 256 264 276 291 294 294 295 302 308 313 312 298 283 279 248 209 196 194 192 187 183 183 187 191 188 184 183 183 184 182 182 184
209 234 246 265 256 261 265 260 252 249 245 247 259 267 276 288 293 287 288 296 303 307 306 300 289 271 247 219 204 196 189 186 181 183 187 184 180 179 181 181 179 178 179 178
215 208 234 264 280 289 262 241 238 242 240 241 253 267 296 299 295 283 268 274 292 301 300 298 292 271 250 230 209 198 190 180 179 181 180 177 176 178 179 175 175 177 178 175
209 205 221 259 277 247 250 233 234 244 251 252 264 285 291 287 290 275 265 287 293 298 294 291 288 286 278 251 219 194 177 175 176 175 176 175 173 174 172 172 176 177 174 175
209 202 211 229 247 267 274 260 229 234 252 260 271 289 300 304 302 285 309 304 285 285 286 280 274 270 266 255 208 173 170 174 175 178 178 175 172 169 169 173 174 170 168 170
199 196 208 222 240 250 260 277 268 229 257 273 275 287 295 316 298 287 308 310 301 301 295 287 281 281 256 250 190 171 174 176 184 184 179 172 169 168 171 172 167 162 163 166
186 199 214 227 242 260 268 286 65 190 256 286 274 282 286 267 260 284 297 297 288 290 293 290 268 260 251 229 186 182 182 189 185 171 163 162 165 166 164 161 159 156 156 154
194 199 209 208 230 250 255 167 202 241 263 275 274 276 283 282 289 296 294 292 291 297 299 296 281 271 267 225 192 192 199 186 160 157 157 158 159 157 155 153 155 154 153 152
207 202 204 209 228 249 238 229 244 251 271 276 274 273 276 284 293 299 298 294 289 288 289 282 271 262 257 233 203 199 198 162 154 154 154 153 153 153 155 156 156 155 156 157
245 208 212 248 259 265 269 269 270 269 268 271 271 272 275 279 286 291 293 292 290 284 285 280 271 256 253 249 226 203 178 162 158 158 155 153 153 153 153 155 159 160 162 160
227 213 228 250 267 281 270 264 269 276 278 279 278 271 273 277 282 282 285 286 282 280 280 270 257 249 248 243 224 188 174 166 164 161 156 154 153 153 152 151 159 161 166 167
219 219 233 251 254 258 271 276 280 285 286 283 281 282 278 270 274 277 277 278 278 274 278 275 267 254 247 228 216 189 180 173 165 164 160 157 154 152 150 143 124 110 138 146
Height
1438 1441 1438 1434 1434 1432 1431 1430 1429 1425 1423 1423 1420 1417 1415 1414 1413 1412 1412 1413 1415 1416 1420 1424 1428 1432 1436 1441 1444 1449 1454 1459 1464 1469 1473 1477 1481 1486 1490 1494 1498 1502 1505 1508
1439 1436 1430 1430 1430 1430 1429 1429 1427 1424 1421 1421 1419 1414 1410 1408 1408 1407 1406 1407 1408 1411 1414 1417 1421 1425 1429 1433 1438 1442 1447 1452 1457 1462 1466 1471 1476 1481 1486 1490 1494 1498 1502 1505
1434 1428 1426 1427 1428 1428 1425 1425 1424 1423 1421 1418 1420 1413 1406 1401 1401 1400 1400 1400 1401 1403 1406 1409 1414 1417 1422 1426 1430 1435 1440 1445 1450 1456 1462 1469 1474 1479 1483 1486 1489 1493 1497 1501
1429 1424 1423 1423 1423 1422 1421 1418 1419 1420 1423 1423 1420 1417 1402 1397 1395 1393 1392 1392 1393 1396 1399 1402 1406 1410 1413 1417 1423 1428 1433 1438 1444 1450 1455 1460 1464 1468 1471 1477 1482 1488 1492 1496
1425 1420 1419 1419 1417 1417 1416 1415 1416 1416 1419 1422 1418 1420 1400 1392 1389 1384 1384 1384 1386 1388 1392 1394 1397 1401 1406 1410 1416 1421 1426 1431 1437 1443 1447 1453 1457 1462 1468 1473 1478 1483 1488 1492
1420 1417 1417 1414 1412 1413 1413 1415 1415 1415 1418 1420 1409 1414 1399 1388 1380 1377 1377 1377 1378 1381 1384 1387 1390 1394 1399 1403 1408 1413 1418 1424 1430 1435 1440 1445 1450 1456 1462 1467 1472 1477 1482 1486
1420 1415 1411 1411 1412 1411 1413 1418 1423 1424 1421 1412 1399 1400 1388 1376 1372 1370 1370 1370 1372 1374 1377 1380 1383 1386 1390 1395 1400 1405 1410 1416 1422 1428 1433 1438 1443 1449 1454 1459 1465 1470 1475 1479
1427 1419 1409 1407 1409 1409 1410 1412 1419 1419 1415 1404 1395 1389 1377 1369 1365 1364 1365 1366 1366 1368 1370 1372 1375 1379 1383 1387 1392 1397 1402 1408 1414 1420 1426 1431 1437 1443 1448 1454 1459 1463 1467 1472
1425 1418 1407 1404 1403 1405 1407 1407 1407 1411 1408 1406 1395 1383 1372 1364 1362 1361 1361 1361 1361 1362 1363 1365 1368 1371 1375 1379 1384 1389 1395 1401 1406 1412 1418 1424 1430 1436 1441 1447 1452 1457 1462 1467
1420 1420 1409 1404 1402 1400 1401 1402 1407 1409 1408 1402 1391 1383 1373 1364 1362 1359 1359 1358 1356 1356 1357 1359 1361 1364 1367 1371 1377 1382 1387 1393 1398 1405 1411 1417 1423 1429 1435 1440 1446 1451 1456 1461
1417 1419 1411 1406 1402 1400 1401 1402 1402 1404 1403 1400 1393 1378 1360 1359 1358 1357 1355 1354 1353 1352 1352 1353 1355 1358 1361 1365 1370 1375 1380 1386 1392 1397 1404 1410 1416 1422 1428 1434 1439 1445 1450 1455
1414 1416 1414 1407 1398 1396 1397 1399 1401 1405 1404 1398 1394 1377 1355 1354 1353 1353 1352 1351 1350 1350 1349 1349 1350 1351 1354 1358 1362 1367 1373 1378 1384 1390 1397 1403 1409 1415 1421 1427 1433 1438 1444 1449
1411 1414 1415 1408 1405 1400 1398 1398 1399 1401 1400 1396 1392 1374 1353 1353 1351 1351 1350 1349 1348 1347 1346 1345 1346 1346 1348 1351 1355 1361 1366 1372 1378 1384 1390 1397 1403 1409 1414 1421 1427 1432 1438 1443
1405 1410 1411 1408 1402 1400 1399 1396 1396 1399 1397 1391 1381 1368 1357 1355 1353 1351 1348 1346 1345 1343 1342 1342 1342 1342 1344 1346 1350 1354 1359 1365 1371 1377 1384 1390 1395 1402 1408 1415 1421 1426 1432 1437
1404 1406 1403 1399 1395 1393 1390 1387 1387 1390 1388 1386 1374 1367 1359 1356 1354 1351 1348 1345 1343 1341 1340 1339 1339 1339 1340 1342 1345 1349 1354 1359 1365 1371 1377 1383 1390 1396 1403 1409 1415 1421 1426 1431
1401 1402 1399 1395 1389 1387 1383 1378 1378 1376 1376 1375 1370 1363 1357 1354 1352 1348 1346 1344 1342 1340 1338 1338 1337 1337 1338 1339 1341 1344 1348 1354 1360 1365 1371 1377 1384 1391 1397 1403 1409 1415 1421 1426
1400 1401 1400 1394 1388 1384 1380 1371 1370 1369 1368 1368 1365 1358 1354 1352 1348 1346 1343 1342 1340 1338 1337 1336 1335 1335 1335 1336 1337 1340 1344 1349 1355 1360 1366 1372 1378 1385 1391 1398 1404 1409 1415 1421
1396 1397 1398 1393 1392 1391 1372 1364 1363 1363 1362 1361 1359 1355 1353 1349 1344 1342 1341 1340 1338 1337 1335 1334 1333 1333 1333 1333 1334 1337 1341 1345 1350 1355 1361 1367 1373 1379 1386 1392 1398 1404 1410 1415
1386 1390 1394 1392 1388 1379 1366 1361 1360 1360 1358 1357 1356 1352 1349 1345 1341 1338 1337 1337 1336 1335 1333 1332 1331 1331 1330 1330 1332 1334 1338 1342 1347 1351 1357 1363 1369 1375 1380 1386 1392 1399 1405 1410
1381 1384 1389 1388 1384 1375 1362 1356 1353 1356 1357 1353 1351 1349 1347 1345 1344 1339 1336 1334 1333 1332 1331 1330 1328 1328 1327 1328 1330 1332 1335 1339 1343 1347 1353 1358 1364 1370 1376 1381 1388 1394 1400 1406
1381 1384 1384 1383 1379 1368 1359 1354 1352 1361 1357 1350 1348 1347 1345 1344 1342 1339 1335 1333 1331 1330 1328 1327 1326 1325 1325 1326 1327 1329 1332 1336 1340 1345 1350 1355 1361 1366 1372 1378 1384 1390 1396 1402
1376 1379 1380 1378 1376 1367 1353 1353 1355 1353 1348 1347 1345 1344 1342 1339 1337 1335 1332 1330 1328 1326 1325 1324 1323 1322 1323 1324 1326 1327 1330 1334 1338 1342 1347 1352 1357 1363 1369 1374 1380 1386 1392 1398
1369 1368 1367 1366 1360 1351 1349 1349 1347 1347 1345 1343 1341 1340 1339 1336 1334 1332 1329 1327 1325 1323 1322 1322 1321 1320 1321 1322 1324 1325 1328 1332 1335 1339 1343 1348 1354 1360 1365 1370 1376 1382 1388 1393
1362 1359 1361 1359 1351 1347 1345 1344 1344 1343 1341 1339 1337 1335 1334 1332 1330 1328 1326 1323 1321 1320 1319 1318 1318 1317 1317 1319 1321 1324 1326 1329 1333 1337 1341 1346 1351 1356 1362 1368 1373 1378 1383 1388
1357 1356 1355 1352 1347 1344 1341 1340 1340 1338 1336 1335 1333 1331 1329 1327 1325 1323 1321 1319 1317 1316 1315 1315 1314 1314 1315 1316 1318 1321 1324 1327 1330 1334 1338 1343 1348 1353 1359 1365 1370 1375 1381 1386
1349 1351 1351 1346 1342 1342 1338 1336 1335 1333 1331 1329 1327 1325 1323 1322 1320 1318 1316 1314 1313 1311 1310 1310 1310 1311 1312 1313 1315 1318 1321 1324 1327 1331 1335 1340 1345 1350 1356 1361 1368 1374 1380 1385